Showing default

TIANPING 3B-01, 61615

Orbit data source: Space-Track

TIANPING 3B-01, 61615 is a payload satellite owned by ZJUNI-SAT (CN) in SSO that was launched on Tue, 22 Oct 2024 UTC via a CHANG ZHENG 6 launch vehicle from the Taiyaun Space Center, China (TSC). Payload-class satellites include a variety of spacecraft equipped with specific instruments for various scientific and technological missions. These include communications satellites like Starlink; space stations such as the ISS; scientific satellites like the Hubble; Earth observation satellites from companies like Planet Labs, Umbra, and HawkEye 360; GPS; miniature CubeSats for education and research; and military/defense satellites.

Loading next visibility...
Identifier
61615, 2024-189B
Orbit
SSO
Country
Flag of CNCN / PRC
Related business
Manufacturer
CASIC/ZJUNI
Mission
Defense Calibration
Bus & Motor
TP-3, Unknown motor
Mass
200 kg wet, ~200 kg dry
Launch date (UTC)
2024-10-22 (1 year ago)
Launch vehicle
CHANG ZHENG 6
Launch site
Taiyaun Space Center, China (TSC)
Object type
Payload
Rocket body
Debris
Shape & HBR
Box, 0.3 m
Radar Cross Section
0.135 m², Medium (>0.1 m² and < 1m²)

Expand to show TLE details & history
Last TLE update: 8 hours ago

TLE from 8 hours ago
0 TIANPING 3B-01
1 61615U 24189B   25353.32083885  .00002182  00000-0  17533-3 0  9993
2 61615  97.5436  13.9509 0001734  53.2547 306.8836 15.01026098 63468
Epoch: 2025-12-19T07:42Z
TLE epoch observation values (Epoch: 2025-12-19T07:42:00.476Z)
Latitude
-0.00008°
Longitude
170.28525°
Altitude
566.069 km
Speed
7.579 km/s
True Right ascension
00h 55m 48s
True Declination
0° 00' 00"
Sunlit
Object was in daylight at epoch
Visualization orbit readout
Latitude
Unknown
Longitude
Unknown
Altitude
Unknown
Speed
Unknown
Apparent Right ascension
Unknown
Apparent Declination
Unknown
Sunlit
N/A
Visualization observer readout
Local Sidereal Time
14:07:38
Azimuth
Unknown
Elevation
Unknown
Doppler factor
Unknown
Orbital elements
Apogee altitude
561.931 km
Perigee altitude
559.525 km
Semi-major axis
6,938.865 km
Eccentricity
0.00017
Inclination
97.5436°
RAAN
13.9509°
Arg. of periapsis
53.2547°
True anomaly
306.8677°
Mean anomaly
306.8836°
Eccentric anomaly
306.87565°
Mean motion
3.755 °/min
Orbital period
95.87 mins
BSTAR
0.00017533
Loading maneuver chart data...
Computing Atmospheric mass density...
Loading historical data...
Loading historical data...
Loading historical data...
Loading historical data...
Loading historical data...
Loading historical data...
Loading historical data...
Other satellites on launch #189 in the year 2024 (2024-10-22 UTC)

Documentation

Showing up to 5 results
|